Temperature
21 20 20 20 20 22 23 25 26 26 27 27 27 26 24 23 22 20 19 20 20 19 19 20 19 19 19 19 19 19 19 19 19 19 19 19 19 19 19 19 19 19 19 19 19 19 19 19 19
21 20 20 21 21 22 23 25 25 27 27 27 26 25 23 22 21 20 19 20 20 19 19 19 19 19 19 19 19 19 19 18 18 18 18 18 18 18 18 18 19 19 19 19 19 19 19 19 19
21 21 21 22 23 23 24 25 26 27 27 27 26 23 22 20 19 19 19 19 19 19 19 19 19 19 19 19 19 19 19 18 18 18 18 18 18 18 18 18 18 18 18 18 18 18 18 18 18
21 21 22 22 24 25 26 26 27 27 27 26 25 23 20 19 19 19 19 19 19 19 19 19 19 19 19 19 19 19 19 19 19 18 18 18 18 18 18 18 18 18 18 18 18 18 18 18 18
21 22 22 23 25 26 27 27 27 27 27 26 25 22 20 19 19 19 19 19 19 19 19 19 19 19 19 19 19 19 19 19 18 18 18 18 18 18 18 18 18 18 18 18 18 18 18 18 18
22 24 23 23 25 26 27 27 27 26 26 26 25 22 20 19 19 19 19 19 19 19 19 19 19 19 19 18 18 18 18 18 18 18 18 18 18 18 18 18 18 18 18 18 18 18 18 18 18
23 24 25 25 25 26 27 27 27 26 26 25 24 22 20 19 19 19 19 19 19 19 19 18 18 18 18 18 18 18 18 18 18 18 18 18 18 18 18 18 18 18 18 18 18 18 18 18 18
25 25 24 24 25 26 27 27 26 26 25 24 24 22 21 20 20 20 20 19 19 19 19 18 18 18 18 18 18 18 18 18 18 18 18 18 18 18 18 18 18 18 18 18 18 18 18 18 18
26 25 22 24 26 26 27 27 26 25 24 23 22 21 21 20 20 20 20 19 19 19 18 18 18 18 18 17 17 17 17 17 18 18 18 18 18 18 18 18 18 18 18 18 18 18 18 18 18
27 25 23 25 28 27 27 27 26 25 24 23 22 21 21 21 21 21 20 20 19 18 18 18 17 17 17 17 17 17 17 17 17 17 17 17 17 17 17 17 18 18 18 18 18 18 18 18 18
27 26 26 27 28 27 27 26 26 26 24 23 22 22 21 21 21 20 20 19 19 18 17 17 17 17 17 17 16 16 16 16 16 17 17 17 17 17 17 17 17 17 18 18 18 18 18 18 18
28 28 28 28 27 27 27 26 26 25 24 23 22 22 21 21 21 20 20 19 19 18 17 17 16 16 16 16 16 16 16 16 16 16 16 16 16 17 17 17 17 17 17 17 17 17 18 18 18
27 27 27 27 26 27 26 26 25 24 23 22 22 22 21 21 20 20 20 19 18 18 17 16 16 15 15 15 15 15 16 16 16 16 16 16 16 16 16 17 17 17 17 17 17 17 18 18 18
25 26 27 27 26 26 26 25 25 23 23 22 22 22 21 21 20 20 19 19 18 17 17 16 15 15 15 15 15 15 15 15 15 15 16 16 16 16 16 16 16 17 17 17 17 17 17 18 18
28 28 27 27 26 26 26 25 25 23 23 23 23 22 21 21 20 20 19 18 18 17 16 16 16 15 15 14 14 14 15 15 15 15 15 15 15 16 16 16 16 16 16 17 17 17 17 17 17
28 27 25 25 25 25 25 24 25 23 23 23 23 23 22 21 21 20 19 18 17 16 16 16 15 15 14 14 14 14 14 14 14 14 15 15 15 15 15 15 16 16 16 16 16 17 17 17 17
26 24 24 24 25 26 25 25 24 23 23 23 23 23 22 22 21 20 19 18 17 16 16 16 15 14 14 14 14 14 14 14 14 14 14 14 15 15 15 15 15 15 16 16 16 16 16 17 17
24 23 24 25 26 26 26 26 25 24 24 24 24 23 23 22 21 20 18 18 17 16 16 16 15 15 14 14 14 14 14 14 14 14 14 14 14 14 14 14 15 15 15 15 16 16 16 16 16
25 26 27 27 27 26 26 26 26 25 24 24 24 24 23 22 21 20 19 18 17 16 16 16 15 14 14 14 13 13 13 13 14 13 13 14 14 14 14 14 14 14 15 15 15 15 16 16 16
26 27 28 28 27 26 26 27 27 26 25 24 24 24 23 22 21 20 19 18 17 16 16 15 15 14 14 13 13 13 13 13 13 13 13 13 13 13 14 14 14 14 14 14 15 15 15 15 16
27 27 27 26 27 27 26 25 26 26 25 25 24 23 23 22 21 20 19 18 17 16 15 15 14 14 14 13 13 13 13 13 13 13 13 13 13 13 13 13 14 14 14 14 14 14 15 15 15
27 27 27 26 25 26 26 24 25 26 25 25 24 23 22 22 20 19 18 17 17 16 15 14 14 14 13 13 13 13 13 12 13 13 13 13 13 13 13 13 13 13 14 14 14 14 14 14 15
27 26 26 26 25 25 26 25 26 25 24 24 24 23 22 21 20 19 18 17 16 16 15 14 14 13 13 13 13 13 12 12 12 12 12 12 13 13 13 13 13 13 13 13 14 14 14 14 14
26 26 26 26 25 24 26 26 25 25 25 25 24 23 22 21 20 19 18 17 16 16 15 15 14 14 13 13 13 13 13 12 12 12 12 12 12 12 12 13 13 13 13 13 13 13 14 14 14
26 25 25 24 24 25 27 26 25 24 25 24 24 23 22 21 20 19 18 17 17 16 15 15 14 14 13 13 13 13 13 13 13 12 12 12 12 12 12 12 12 12 12 13 13 13 13 14 14
27 26 24 24 25 26 26 26 24 25 24 24 23 23 22 21 20 19 18 17 17 16 16 15 14 14 14 13 13 13 13 13 12 12 12 12 12 12 12 12 12 12 12 12 13 13 13 13 13
26 26 27 25 25 26 26 26 24 25 24 24 23 23 22 21 20 19 18 18 17 16 16 15 15 14 14 14 13 13 13 13 12 12 12 12 12 12 12 12 12 12 12 12 12 12 13 13 13
26 25 25 25 24 25 26 26 24 24 24 24 24 23 22 21 20 19 19 18 17 17 16 16 15 15 14 14 14 13 13 13 12 12 12 12 12 12 12 12 12 12 12 12 12 12 12 12 13
25 25 25 25 25 24 24 24 25 24 24 24 24 23 22 21 20 20 19 18 17 17 16 16 16 15 15 14 14 13 13 13 12 12 12 12 12 12 12 12 12 12 12 12 12 12 12 12 12
26 26 25 24 25 25 23 23 25 24 24 24 23 23 22 21 20 19 19 18 18 17 17 16 16 15 15 14 14 13 13 13 13 12 12 12 12 12 12 12 11 11 11 11 11 11 12 12 12
Wind_Speed
10 10 7 2 2 1 5 6 10 9 8 9 11 11 13 13 8 6 2 8 8 12 13 12 9 7 5 4 3 2 2 2 2 2 3 3 3 3 2 2 3 3 3 3 3 3 3 4 4
9 7 5 3 2 2 4 6 7 9 9 7 11 14 13 11 10 6 5 7 9 12 12 12 10 8 7 5 4 3 3 3 4 4 4 5 4 4 4 4 4 4 3 3 3 3 3 3 3
8 7 4 3 0 4 4 4 4 9 10 10 11 12 8 6 7 5 5 7 11 12 13 13 11 9 7 6 5 4 4 4 5 5 5 6 6 5 5 5 5 4 4 3 3 2 3 3 3
5 4 4 2 3 8 7 6 5 8 10 11 10 10 7 7 4 4 6 9 11 10 12 12 11 9 8 7 6 5 5 5 5 5 6 6 6 6 6 6 6 6 5 5 4 3 3 3 3
5 4 2 1 5 9 8 8 8 9 10 12 12 10 8 7 7 7 8 9 9 8 8 9 8 7 6 5 4 4 4 4 4 5 5 6 7 7 7 7 7 6 6 6 5 4 4 4 4
4 4 1 0 6 7 6 6 8 9 10 10 10 9 6 8 7 7 7 7 7 6 5 6 5 4 4 3 2 2 2 3 3 4 5 6 6 7 7 8 8 8 7 7 6 5 5 5 5
5 4 3 3 6 5 5 6 9 8 9 9 8 7 6 8 6 5 6 5 4 4 3 3 3 3 2 1 0 1 2 3 3 3 4 5 6 7 8 9 9 9 8 8 8 7 6 6 6
6 4 6 4 5 5 5 5 7 8 9 9 8 7 6 6 5 5 5 4 4 3 3 1 2 1 0 2 3 3 3 4 4 5 5 6 7 8 8 9 10 10 9 9 9 8 8 8 8
8 2 2 3 4 6 5 5 6 7 10 12 12 11 8 6 5 5 4 5 5 6 4 4 3 3 2 3 1 2 4 5 5 5 6 7 7 7 6 7 7 8 9 9 9 9 9 9 10
5 1 3 2 4 7 4 4 4 5 8 9 10 9 7 4 4 5 5 6 6 6 6 6 6 4 4 5 2 2 4 3 4 5 5 5 6 6 7 6 7 7 8 9 10 10 10 10 10
4 1 3 3 6 5 4 4 2 3 5 6 7 7 5 4 5 6 6 7 6 6 7 7 7 6 5 3 3 2 4 4 4 5 5 6 6 5 6 5 4 5 7 6 7 8 8 9 10
4 2 3 6 4 2 3 3 3 6 6 8 8 5 4 4 6 6 6 6 5 7 6 6 8 7 6 6 4 4 3 2 2 3 5 4 3 3 3 3 3 4 4 4 3 4 7 9 10
3 2 4 6 4 2 2 3 4 6 6 7 6 4 3 4 4 4 5 6 6 6 6 7 7 7 6 5 4 4 3 3 4 3 4 4 3 4 4 3 4 5 5 3 3 3 4 5 6
2 5 6 6 5 3 3 4 5 7 7 6 5 4 3 3 3 4 6 7 7 7 7 7 7 6 7 6 6 5 4 4 4 4 5 5 3 3 4 4 4 4 5 5 4 4 5 5 5
6 6 6 6 5 3 3 6 7 11 8 6 5 4 4 1 1 4 7 7 7 8 8 6 6 7 8 7 7 5 4 5 4 4 7 7 5 3 2 3 3 4 6 6 5 5 3 5 6
6 7 6 5 5 4 4 4 10 11 8 6 5 4 5 3 1 5 7 7 8 7 7 6 7 7 7 6 6 4 4 4 4 6 6 8 8 6 3 2 2 3 4 4 5 5 5 5 5
5 5 6 5 10 7 6 4 11 10 8 7 6 3 3 2 3 7 7 7 6 5 6 6 6 5 6 7 6 4 4 3 4 5 5 7 9 8 4 3 3 3 2 4 5 4 5 5 6
3 2 9 5 7 5 6 6 9 11 8 6 4 3 3 1 5 8 6 4 4 4 5 6 4 5 6 5 6 5 5 4 3 4 5 8 8 8 6 4 4 3 2 3 3 4 5 5 5
7 8 9 1 6 2 7 8 6 11 8 6 6 4 1 3 5 7 4 4 5 6 5 5 6 6 5 4 5 5 5 5 4 3 5 6 7 7 5 5 5 4 3 3 4 3 4 5 4
9 10 9 3 6 2 8 9 5 10 8 5 4 3 1 3 4 6 4 6 5 4 5 7 7 5 5 4 4 5 5 4 3 3 4 6 6 6 6 5 5 4 3 4 4 3 3 3 4
10 7 6 7 5 5 7 9 7 7 5 5 3 3 4 2 4 5 5 6 4 5 6 7 6 6 6 6 4 5 4 4 4 5 4 5 5 4 4 5 5 5 4 4 4 4 4 4 4
6 6 5 6 7 7 5 4 7 9 8 7 6 4 2 2 4 4 4 5 5 5 6 6 7 7 6 6 5 6 5 5 5 4 4 5 5 4 4 4 5 5 4 4 4 3 3 3 4
4 4 5 7 8 10 7 6 5 9 7 6 5 4 3 4 4 4 4 4 3 4 4 3 4 5 4 4 4 3 4 4 4 4 5 5 4 4 4 4 5 5 4 4 4 4 4 4 4
1 4 8 7 7 9 8 5 5 5 6 5 5 4 5 4 4 4 5 3 1 2 2 2 2 2 2 3 4 4 4 5 5 5 5 5 4 3 5 4 4 5 4 5 5 4 5 4 5
5 7 5 7 7 4 7 2 4 10 8 5 4 4 5 6 3 4 4 3 1 1 2 2 2 2 2 3 4 5 4 5 5 5 5 5 4 4 5 5 5 4 4 5 5 5 5 5 5
4 6 6 5 3 3 5 4 8 10 8 5 4 3 4 6 5 4 4 3 2 1 2 1 2 3 2 2 4 4 4 3 3 4 5 5 4 4 5 5 6 5 5 5 5 4 5 4 5
4 5 3 5 9 5 6 8 9 7 8 6 4 3 3 5 6 5 4 3 1 1 1 1 2 3 2 2 3 3 4 4 4 5 5 5 5 5 6 6 6 6 5 5 4 4 5 5 5
4 7 4 4 5 5 4 6 7 8 5 5 5 5 5 5 5 6 5 5 3 2 2 3 3 3 3 2 3 3 3 3 3 3 3 5 6 6 5 5 6 7 6 6 5 4 5 5 5
7 5 4 5 5 4 3 5 7 7 5 2 1 3 4 5 5 4 4 3 3 2 3 3 2 2 1 2 3 4 2 2 4 3 3 4 5 6 6 5 6 7 6 6 5 6 6 6 6
3 5 4 4 4 2 2 3 6 7 4 1 0 1 3 4 4 4 4 3 3 2 2 1 1 1 0 1 3 4 3 3 4 4 4 5 6 6 6 5 6 6 7 6 6 7 7 7 7
Wind_Direction
194 210 211 221 247 268 50 40 45 30 39 46 48 63 67 53 45 75 30 19 67 99 111 108 98 88 75 61 48 29 1 332 306 290 287 284 286 289 292 301 311 320 329 344 351 0 2 6 6
210 210 218 230 234 94 65 44 48 44 39 52 62 65 66 57 49 71 32 10 67 83 91 95 91 80 69 54 37 9 341 320 304 289 284 283 278 277 280 283 288 297 307 318 334 348 344 353 354
232 224 238 237 351 87 92 60 53 56 43 58 69 60 52 43 37 43 20 33 69 75 80 83 83 77 71 59 44 25 2 342 323 306 295 285 279 278 276 275 276 281 289 296 309 320 322 321 325
217 226 246 265 68 71 75 69 50 58 48 58 75 74 69 49 41 44 40 53 69 75 78 77 75 73 70 64 50 34 17 358 338 320 305 294 286 278 276 272 271 272 274 277 283 283 286 293 295
232 239 272 333 76 70 57 49 54 54 50 62 79 90 83 67 65 59 53 52 63 68 76 81 81 77 71 65 54 35 17 3 344 323 310 299 289 283 279 273 268 266 267 268 267 265 269 274 277
262 255 274 70 86 78 64 43 55 61 54 48 86 94 81 77 66 66 68 65 64 67 67 87 95 92 75 58 47 27 350 341 338 328 316 300 288 282 277 273 269 265 263 263 260 255 258 262 264
257 274 314 92 96 94 74 45 48 61 55 39 55 93 99 85 79 81 83 90 89 85 80 89 113 123 125 169 269 309 320 315 305 307 311 305 293 279 271 267 263 260 258 256 255 251 251 254 254
268 299 350 9 77 89 84 72 55 52 63 47 43 88 99 98 116 111 105 94 79 66 57 72 89 83 132 243 234 243 271 283 284 279 279 282 286 278 268 261 258 254 253 252 252 250 247 247 248
265 309 7 354 63 100 110 103 86 79 81 73 70 82 99 117 117 99 80 64 47 35 21 16 6 353 321 283 266 231 262 260 269 274 268 265 269 279 279 262 262 257 253 251 250 249 247 246 245
237 274 152 330 41 104 109 91 107 118 103 99 96 99 107 101 77 60 48 40 28 22 16 7 352 346 333 326 329 259 271 253 253 252 251 244 248 259 272 273 255 253 253 253 249 247 247 243 246
239 185 133 99 55 90 110 98 68 86 99 105 110 105 96 85 63 42 34 36 21 25 17 360 358 345 343 336 331 323 281 244 242 250 245 234 236 242 251 257 256 247 243 242 252 242 241 240 242
232 112 88 91 77 91 107 110 81 59 82 91 98 107 96 60 45 30 22 26 9 30 8 9 1 346 350 350 345 304 288 275 264 245 252 234 214 221 230 227 230 233 234 227 238 249 248 254 253
225 122 109 112 135 126 110 113 100 109 106 110 120 122 93 59 34 22 18 25 14 28 9 23 2 354 346 335 310 320 327 323 312 297 271 250 227 225 226 226 212 216 220 217 216 235 255 268 271
169 172 165 152 151 159 186 162 169 149 150 157 166 166 120 74 11 4 27 20 13 21 14 22 354 0 346 342 341 336 337 325 322 316 307 293 266 235 223 229 219 211 214 217 218 228 245 263 279
186 197 183 175 173 167 236 232 195 144 170 186 204 181 132 92 343 36 38 22 19 16 9 7 354 12 357 353 342 332 329 339 343 334 324 316 305 283 258 245 239 222 216 215 217 230 245 255 265
228 236 225 185 179 168 232 294 128 144 182 202 219 198 157 168 138 65 45 28 24 18 359 359 9 5 359 352 332 326 335 350 337 337 345 338 337 335 323 302 282 256 227 209 209 210 217 236 246
235 276 287 194 194 184 217 268 153 166 192 213 219 228 174 173 96 75 53 38 25 20 355 355 25 10 5 351 329 329 348 351 343 353 3 350 345 336 326 314 293 284 249 224 224 209 204 223 233
275 255 272 234 174 213 257 270 169 172 192 229 230 231 216 115 76 76 54 44 38 40 0 344 27 30 12 5 337 352 354 347 355 2 6 359 345 340 334 317 306 299 284 257 239 224 210 214 220
265 264 278 122 128 274 290 280 188 166 182 217 235 228 222 88 86 88 72 61 48 38 353 345 30 27 17 13 343 347 346 339 356 360 9 352 350 349 338 333 324 319 296 279 263 241 228 224 209
274 281 300 39 96 339 294 281 227 166 180 205 255 277 220 121 97 100 83 59 37 33 3 6 29 21 21 13 351 342 349 335 356 354 359 359 356 355 346 345 332 319 303 287 277 259 238 239 211
272 290 345 344 331 266 264 265 214 156 161 176 205 289 319 64 61 55 54 64 27 37 26 9 23 20 28 6 8 353 343 341 1 354 355 343 339 357 357 343 337 328 323 302 293 263 248 247 239
293 44 356 309 289 276 214 286 165 157 166 187 186 190 208 95 96 78 56 52 30 42 37 12 20 17 24 6 9 349 357 355 342 340 343 338 344 2 6 350 340 336 328 318 305 297 265 247 250
31 11 301 282 277 281 242 246 148 143 168 164 143 149 140 124 115 105 89 68 41 46 49 20 22 15 20 355 331 331 1 334 327 333 341 341 340 348 9 357 341 332 325 321 314 312 284 253 243
53 270 254 247 257 257 233 234 134 140 115 104 120 136 140 132 129 130 117 112 89 76 60 20 32 9 359 334 327 343 352 337 333 346 347 341 334 344 7 356 342 333 335 324 313 303 290 271 256
229 256 256 217 216 217 120 176 91 98 86 73 77 106 124 126 151 145 133 122 74 58 63 0 1 6 4 341 334 344 352 332 344 1 340 334 335 343 355 355 332 327 322 312 310 305 292 276 266
238 273 287 301 285 122 152 175 103 105 105 110 128 134 139 151 156 142 144 151 172 132 83 12 337 311 316 327 334 333 332 340 0 345 327 335 333 331 343 339 322 316 316 314 310 305 296 288 275
274 246 316 319 295 284 172 130 122 134 144 143 147 151 178 164 155 167 167 168 167 121 105 288 293 296 298 302 311 316 341 356 352 332 339 344 333 332 339 325 323 324 318 312 311 301 303 304 291
291 333 306 262 300 296 165 152 141 143 135 146 163 173 181 173 171 172 164 170 178 174 190 224 237 268 296 324 316 328 327 349 323 304 334 328 316 315 317 337 339 331 330 335 339 322 309 300 290
188 218 243 275 277 284 332 78 82 98 84 56 77 134 155 166 167 162 156 164 169 202 219 223 231 232 247 301 314 314 319 337 309 315 325 314 311 325 337 341 338 331 336 339 342 329 319 312 301
218 252 258 265 299 295 305 99 100 104 113 142 291 135 144 144 154 160 166 179 202 216 258 263 303 305 253 317 320 312 322 324 325 339 338 331 324 330 330 335 335 335 338 341 336 328 330 323 314
Height
1521 1522 1523 1525 1526 1527 1526 1518 1511 1510 1508 1510 1511 1512 1518 1522 1527 1536 1536 1533 1533 1532 1532 1533 1534 1534 1535 1536 1537 1537 1538 1539 1539 1540 1541 1541 1541 1542 1542 1542 1543 1543 1543 1543 1543 1543 1543 1543 1543
1521 1521 1524 1525 1527 1533 1530 1517 1515 1512 1511 1511 1513 1516 1520 1526 1530 1533 1534 1534 1534 1533 1533 1533 1534 1535 1535 1536 1536 1537 1537 1538 1538 1539 1539 1540 1540 1541 1541 1541 1542 1542 1542 1542 1542 1542 1543 1543 1543
1520 1522 1523 1522 1523 1527 1527 1517 1514 1512 1512 1513 1516 1521 1526 1532 1533 1534 1534 1534 1533 1533 1533 1533 1534 1534 1535 1535 1535 1536 1536 1537 1537 1537 1538 1538 1539 1539 1540 1540 1540 1541 1541 1541 1541 1542 1542 1542 1543
1521 1522 1522 1522 1521 1515 1515 1514 1513 1513 1514 1515 1517 1525 1532 1535 1535 1535 1535 1534 1534 1533 1533 1533 1533 1534 1534 1534 1534 1535 1535 1535 1535 1536 1536 1537 1537 1538 1538 1538 1539 1539 1540 1540 1540 1541 1541 1541 1542
1521 1521 1521 1523 1518 1513 1513 1514 1514 1516 1516 1518 1521 1528 1534 1536 1536 1535 1535 1535 1534 1534 1533 1533 1533 1533 1533 1533 1533 1533 1533 1533 1533 1534 1534 1535 1535 1536 1536 1537 1537 1538 1538 1539 1539 1539 1540 1540 1541
1521 1517 1524 1527 1518 1514 1514 1516 1516 1518 1519 1520 1523 1528 1535 1537 1536 1536 1535 1535 1534 1534 1533 1532 1532 1532 1531 1531 1531 1531 1531 1531 1531 1531 1532 1532 1533 1534 1534 1535 1535 1536 1536 1537 1537 1538 1538 1539 1539
1520 1516 1518 1518 1517 1516 1515 1517 1518 1519 1521 1524 1525 1530 1536 1537 1537 1536 1536 1535 1535 1534 1534 1533 1532 1531 1530 1529 1528 1528 1528 1528 1528 1528 1529 1530 1530 1531 1532 1532 1533 1534 1534 1535 1536 1536 1537 1537 1538
1516 1514 1521 1519 1517 1518 1516 1518 1520 1521 1524 1527 1527 1531 1536 1538 1537 1537 1536 1536 1536 1535 1534 1533 1532 1530 1529 1528 1526 1525 1525 1525 1524 1525 1525 1526 1527 1528 1529 1530 1531 1531 1532 1533 1534 1534 1535 1536 1536
1513 1517 1528 1521 1515 1515 1515 1518 1522 1524 1526 1529 1531 1533 1536 1537 1537 1537 1537 1537 1536 1535 1534 1533 1531 1530 1528 1526 1525 1523 1522 1522 1522 1521 1522 1522 1523 1525 1526 1527 1528 1529 1530 1531 1532 1532 1533 1534 1535
1510 1517 1521 1514 1510 1512 1515 1517 1521 1523 1526 1530 1533 1535 1536 1537 1537 1537 1537 1537 1536 1535 1534 1532 1531 1529 1527 1526 1524 1522 1521 1520 1519 1519 1519 1519 1520 1521 1522 1523 1525 1526 1527 1528 1529 1530 1531 1532 1533
1507 1510 1509 1509 1511 1513 1516 1519 1521 1523 1527 1530 1532 1535 1536 1537 1537 1537 1537 1536 1536 1534 1533 1531 1530 1528 1526 1525 1523 1521 1520 1519 1518 1517 1517 1516 1516 1517 1518 1520 1521 1522 1524 1525 1526 1528 1529 1530 1531
1505 1506 1505 1508 1513 1514 1516 1519 1522 1525 1529 1531 1533 1535 1536 1537 1537 1537 1537 1536 1535 1533 1532 1530 1528 1527 1525 1523 1521 1519 1519 1518 1517 1516 1515 1515 1514 1514 1515 1516 1517 1519 1520 1522 1523 1525 1526 1527 1529
1504 1506 1507 1509 1513 1514 1517 1519 1523 1527 1530 1532 1534 1535 1536 1537 1537 1537 1536 1535 1534 1533 1531 1529 1527 1525 1524 1522 1520 1519 1517 1517 1516 1515 1514 1514 1513 1512 1513 1514 1514 1515 1517 1518 1520 1522 1523 1525 1526
1506 1506 1506 1508 1512 1515 1517 1519 1523 1526 1530 1531 1533 1534 1535 1536 1537 1536 1535 1535 1534 1532 1530 1528 1526 1525 1523 1521 1519 1517 1516 1515 1514 1513 1513 1512 1512 1511 1511 1511 1512 1513 1514 1515 1517 1518 1520 1522 1523
1502 1503 1505 1507 1511 1515 1517 1518 1518 1523 1528 1530 1531 1532 1533 1535 1535 1535 1534 1534 1533 1531 1530 1528 1526 1524 1522 1519 1517 1516 1514 1513 1512 1511 1511 1510 1510 1510 1509 1509 1510 1511 1511 1512 1514 1515 1517 1518 1519
1499 1504 1511 1509 1511 1515 1520 1522 1517 1522 1526 1528 1529 1529 1531 1532 1533 1533 1533 1533 1532 1531 1529 1527 1525 1523 1521 1519 1516 1515 1513 1512 1511 1510 1509 1508 1508 1507 1507 1507 1508 1508 1509 1510 1511 1512 1513 1515 1516
1505 1517 1517 1513 1509 1511 1515 1518 1517 1520 1523 1525 1526 1527 1529 1530 1531 1531 1532 1532 1531 1530 1528 1527 1524 1522 1520 1518 1516 1514 1513 1511 1510 1508 1507 1506 1505 1505 1505 1505 1505 1506 1507 1507 1508 1509 1510 1511 1513
1518 1522 1517 1510 1506 1508 1511 1511 1511 1516 1520 1522 1523 1525 1526 1528 1530 1530 1531 1531 1530 1529 1528 1526 1524 1522 1519 1517 1515 1514 1512 1510 1509 1508 1506 1505 1504 1503 1503 1503 1503 1504 1504 1504 1505 1506 1507 1508 1509
1507 1508 1506 1502 1503 1507 1509 1508 1507 1512 1517 1520 1521 1522 1524 1526 1528 1529 1530 1530 1529 1528 1527 1526 1523 1521 1519 1516 1515 1513 1511 1510 1508 1507 1505 1504 1503 1502 1501 1501 1501 1501 1501 1502 1502 1503 1504 1505 1507
1505 1505 1502 1499 1502 1507 1508 1506 1503 1508 1513 1517 1519 1520 1522 1524 1527 1528 1529 1529 1529 1528 1526 1525 1523 1521 1519 1516 1515 1513 1511 1510 1508 1507 1505 1503 1502 1501 1500 1499 1499 1499 1499 1499 1499 1500 1501 1502 1504
1502 1503 1504 1507 1504 1504 1509 1510 1503 1505 1510 1514 1518 1520 1522 1523 1525 1527 1528 1528 1528 1527 1526 1525 1523 1521 1518 1516 1514 1512 1511 1509 1508 1506 1504 1503 1501 1500 1499 1498 1497 1497 1497 1497 1497 1498 1498 1499 1501
1506 1502 1505 1507 1512 1510 1506 1520 1506 1503 1509 1512 1515 1518 1520 1522 1524 1526 1527 1527 1527 1526 1525 1524 1522 1520 1518 1516 1514 1512 1511 1509 1508 1506 1504 1502 1501 1499 1498 1497 1496 1495 1495 1495 1495 1495 1496 1496 1497
1504 1504 1505 1507 1510 1512 1506 1514 1506 1503 1508 1509 1512 1516 1519 1521 1523 1525 1526 1526 1526 1525 1524 1523 1521 1520 1518 1516 1514 1513 1511 1509 1508 1506 1504 1502 1501 1499 1498 1496 1495 1494 1493 1493 1492 1493 1493 1493 1494
1503 1505 1505 1505 1510 1519 1503 1509 1511 1504 1506 1508 1511 1515 1517 1520 1522 1524 1525 1525 1525 1525 1523 1522 1521 1519 1518 1516 1514 1513 1511 1509 1507 1505 1504 1502 1500 1499 1497 1495 1494 1492 1491 1491 1490 1490 1490 1490 1491
1504 1511 1519 1521 1524 1513 1497 1507 1508 1504 1504 1508 1511 1514 1516 1519 1521 1522 1523 1524 1524 1524 1523 1522 1521 1519 1517 1516 1514 1513 1511 1509 1507 1505 1503 1502 1500 1498 1496 1494 1492 1491 1490 1489 1488 1488 1487 1487 1488
1501 1506 1521 1527 1516 1507 1502 1507 1506 1501 1505 1509 1511 1513 1515 1517 1519 1521 1522 1522 1523 1522 1521 1521 1520 1518 1517 1515 1514 1512 1510 1509 1507 1505 1503 1501 1500 1498 1496 1493 1491 1490 1489 1487 1486 1485 1485 1485 1485
1503 1503 1500 1512 1508 1509 1501 1499 1505 1501 1504 1507 1510 1512 1514 1516 1517 1519 1520 1521 1521 1521 1520 1519 1518 1517 1516 1515 1513 1511 1510 1508 1506 1504 1502 1500 1498 1497 1495 1492 1491 1489 1487 1486 1485 1483 1482 1482 1482
1503 1504 1505 1513 1518 1518 1503 1501 1505 1505 1503 1505 1507 1510 1512 1514 1515 1517 1518 1519 1519 1519 1519 1518 1517 1516 1515 1514 1512 1511 1509 1507 1505 1503 1501 1499 1497 1495 1494 1492 1489 1488 1486 1485 1483 1481 1480 1479 1479
1506 1507 1507 1508 1508 1520 1518 1515 1497 1500 1502 1504 1506 1508 1510 1511 1513 1515 1516 1517 1518 1518 1518 1517 1516 1515 1514 1512 1511 1510 1508 1506 1504 1502 1500 1498 1496 1495 1493 1491 1488 1486 1485 1483 1481 1479 1478 1477 1476
1496 1499 1503 1515 1510 1505 1517 1516 1497 1499 1501 1503 1505 1507 1508 1510 1512 1513 1515 1516 1516 1517 1517 1516 1515 1514 1513 1511 1510 1508 1507 1505 1503 1501 1499 1497 1495 1493 1491 1489 1487 1485 1483 1482 1479 1478 1476 1474 1473